KKP58 YBBN-YBMK

Flight info

Callsign KKP58
Flight time 1h 13m
Altitude 34000
Route BN Q67 RUNLA Q493 EMSUP/N0400F200 V308 MK
Aircraft A321/M-SDE3FGHIRWY/LB1

Departure

Time 2026-04-20 04:51
Airport Brisbane International Airport (YBBN)

Arrival

Time 2026-04-20 06:04
Airport Mackay Airport (YBMK)
Time Latitude Longitude Altitude Speed Heading
2026-04-20 04:35 -27.38665 153.12051 18 ft 0 kts 315°
2026-04-20 04:42 -27.38668 153.12055 18 ft 3 kts 317°
2026-04-20 04:43 -27.38689 153.12072 18 ft 4 kts 324°
2026-04-20 04:43 -27.38712 153.12085 19 ft 4 kts 354°
2026-04-20 04:43 -27.38738 153.12082 19 ft 4 kts 14°
2026-04-20 04:43 -27.38744 153.12081 19 ft 0 kts 14°
2026-04-20 04:45 -27.38743 153.12082 19 ft 1 kts 22°
2026-04-20 04:46 -27.38752 153.12111 19 ft 9 kts 115°
2026-04-20 04:46 -27.38782 153.12208 18 ft 15 kts 108°
2026-04-20 04:46 -27.38853 153.12264 19 ft 14 kts 186°
2026-04-20 04:46 -27.38947 153.12214 19 ft 16 kts 207°
2026-04-20 04:47 -27.39048 153.12158 18 ft 18 kts 206°
2026-04-20 04:47 -27.39189 153.12081 18 ft 25 kts 208°
2026-04-20 04:47 -27.39343 153.11991 18 ft 25 kts 207°
2026-04-20 04:47 -27.39501 153.11956 18 ft 24 kts 143°
2026-04-20 04:48 -27.39569 153.12094 17 ft 1 kts 115°
2026-04-20 04:48 -27.39570 153.12097 18 ft 0 kts 115°
2026-04-20 04:49 -27.39577 153.12113 19 ft 10 kts 115°
2026-04-20 04:49 -27.39596 153.12209 17 ft 12 kts 53°
2026-04-20 04:49 -27.39536 153.12247 19 ft 10 kts 33°
2026-04-20 04:50 -27.39468 153.12287 18 ft 18 kts 27°
2026-04-20 04:50 -27.39133 153.12478 17 ft 88 kts 27°
2026-04-20 04:50 -27.38412 153.12890 20 ft 143 kts 27°
2026-04-20 04:50 -27.37388 153.13468 70 ft 180 kts 31°
2026-04-20 04:51 -27.36259 153.14072 704 ft 177 kts 30°
2026-04-20 04:51 -27.35136 153.14635 1390 ft 176 kts 28°
2026-04-20 04:51 -27.34003 153.15118 1873 ft 181 kts 20°
2026-04-20 04:51 -27.32717 153.15510 2066 ft 202 kts 18°
2026-04-20 04:52 -27.31281 153.15904 2190 ft 223 kts 15°
2026-04-20 04:52 -27.29694 153.16328 2324 ft 247 kts 16°
2026-04-20 04:52 -27.27978 153.16789 2601 ft 267 kts 15°
2026-04-20 04:52 -27.26956 153.17080 2908 ft 271 kts 15°
2026-04-20 04:53 -27.25105 153.17601 3527 ft 277 kts 14°
2026-04-20 04:53 -27.23246 153.18112 4186 ft 280 kts 14°
2026-04-20 04:53 -27.21336 153.18641 4848 ft 284 kts 14°
2026-04-20 04:53 -27.19404 153.19180 5498 ft 288 kts 14°
2026-04-20 04:54 -27.17446 153.19728 6143 ft 292 kts 14°
2026-04-20 04:54 -27.15465 153.20285 6789 ft 295 kts 14°
2026-04-20 04:54 -27.13463 153.20848 7401 ft 298 kts 14°
2026-04-20 04:54 -27.11443 153.21418 8028 ft 301 kts 14°
2026-04-20 04:55 -27.09398 153.21993 8652 ft 304 kts 15°
2026-04-20 04:55 -27.07330 153.22577 9274 ft 308 kts 15°
2026-04-20 04:55 -27.05242 153.23169 9909 ft 311 kts 14°
2026-04-20 04:55 -27.03093 153.23720 10244 ft 326 kts
2026-04-20 04:56 -27.00767 153.23963 10375 ft 346 kts
2026-04-20 04:56 -26.98295 153.24003 10498 ft 365 kts
2026-04-20 04:56 -26.95722 153.24047 10616 ft 383 kts
2026-04-20 04:56 -26.92994 153.24096 10749 ft 400 kts
2026-04-20 04:57 -26.90185 153.24152 11145 ft 407 kts
2026-04-20 04:57 -26.87343 153.24214 11669 ft 410 kts
2026-04-20 04:57 -26.84475 153.24279 12215 ft 414 kts
2026-04-20 04:57 -26.81584 153.24345 12759 ft 417 kts
2026-04-20 04:58 -26.78674 153.24410 13319 ft 420 kts
2026-04-20 04:58 -26.75737 153.24475 13876 ft 423 kts 360°
2026-04-20 04:58 -26.72779 153.24538 14375 ft 426 kts 360°
2026-04-20 04:58 -26.69809 153.24454 14875 ft 428 kts 352°
2026-04-20 04:59 -26.66881 153.23851 15381 ft 429 kts 342°
2026-04-20 04:59 -26.64019 153.22866 15894 ft 431 kts 340°
2026-04-20 04:59 -26.61183 153.21875 16405 ft 433 kts 340°
2026-04-20 04:59 -26.58299 153.20878 16904 ft 435 kts 340°
2026-04-20 05:00 -26.55399 153.19881 17377 ft 438 kts 340°
2026-04-20 05:00 -26.52477 153.18873 17841 ft 440 kts 340°
2026-04-20 05:00 -26.49541 153.17858 18301 ft 442 kts 340°
2026-04-20 05:00 -26.46593 153.16838 18710 ft 445 kts 340°
2026-04-20 05:01 -26.43623 153.15810 19106 ft 447 kts 340°
2026-04-20 05:01 -26.40648 153.14781 19507 ft 448 kts 340°
2026-04-20 05:01 -26.37660 153.13751 19895 ft 450 kts 340°
2026-04-20 05:01 -26.34658 153.12718 20289 ft 452 kts 340°
2026-04-20 05:02 -26.31687 153.11696 20667 ft 454 kts 340°
2026-04-20 05:02 -26.28727 153.10478 21042 ft 452 kts 332°
2026-04-20 05:02 -26.25980 153.08793 21408 ft 450 kts 323°
2026-04-20 05:02 -26.23444 153.06752 21791 ft 450 kts 320°
2026-04-20 05:03 -26.20922 153.04677 22186 ft 451 kts 320°
2026-04-20 05:03 -26.18393 153.02604 22566 ft 453 kts 320°
2026-04-20 05:03 -26.15854 153.00529 22938 ft 454 kts 320°
2026-04-20 05:03 -26.13304 152.98447 23304 ft 455 kts 320°
2026-04-20 05:04 -26.10745 152.96358 23650 ft 457 kts 320°
2026-04-20 05:04 -26.08169 152.94271 23946 ft 458 kts 320°
2026-04-20 05:04 -26.05581 152.92191 24252 ft 459 kts 320°
2026-04-20 05:04 -26.02984 152.90115 24570 ft 460 kts 320°
2026-04-20 05:05 -26.00382 152.88039 24892 ft 461 kts 320°
2026-04-20 05:05 -25.97775 152.85955 25210 ft 462 kts 320°
2026-04-20 05:05 -25.95166 152.83864 25531 ft 462 kts 320°
2026-04-20 05:05 -25.92564 152.81776 25936 ft 460 kts 320°
2026-04-20 05:06 -25.89980 152.79706 26411 ft 456 kts 320°
2026-04-20 05:06 -25.87412 152.77654 26891 ft 453 kts 319°
2026-04-20 05:06 -25.84893 152.75642 27333 ft 450 kts 319°
2026-04-20 05:06 -25.82363 152.73619 27778 ft 447 kts 319°
2026-04-20 05:07 -25.79841 152.71600 28222 ft 445 kts 319°
2026-04-20 05:07 -25.77339 152.69602 28681 ft 442 kts 319°
2026-04-20 05:07 -25.74848 152.67616 29102 ft 440 kts 319°
2026-04-20 05:07 -25.72369 152.65643 29528 ft 438 kts 319°
2026-04-20 05:08 -25.69904 152.63677 29960 ft 435 kts 319°
2026-04-20 05:08 -25.67453 152.61721 30356 ft 433 kts 318°
2026-04-20 05:08 -25.65014 152.59775 30713 ft 430 kts 318°
2026-04-20 05:08 -25.62620 152.57867 31052 ft 428 kts 318°
2026-04-20 05:09 -25.60204 152.55945 31375 ft 426 kts 317°
2026-04-20 05:09 -25.57804 152.54037 31765 ft 423 kts 317°
2026-04-20 05:09 -25.55424 152.52147 32123 ft 419 kts 317°
2026-04-20 05:09 -25.53062 152.50271 32463 ft 417 kts 317°
2026-04-20 05:10 -25.50707 152.48401 32788 ft 415 kts 316°
2026-04-20 05:10 -25.48368 152.46544 33105 ft 413 kts 316°
2026-04-20 05:10 -25.46038 152.44693 33421 ft 411 kts 316°
2026-04-20 05:10 -25.43712 152.42850 33732 ft 410 kts 316°
2026-04-20 05:11 -25.41428 152.41040 34014 ft 409 kts 316°
2026-04-20 05:11 -25.36795 152.37372 34098 ft 410 kts 316°
2026-04-20 05:12 -25.32151 152.33694 34095 ft 411 kts 316°
2026-04-20 05:12 -25.27502 152.30015 34093 ft 411 kts 316°
2026-04-20 05:13 -25.22864 152.26358 34098 ft 409 kts 316°
2026-04-20 05:13 -25.18239 152.22705 34098 ft 408 kts 316°
2026-04-20 05:14 -25.13620 152.19059 34105 ft 409 kts 316°
2026-04-20 05:14 -25.09024 152.15440 34106 ft 409 kts 316°
2026-04-20 05:15 -25.04390 152.11799 34108 ft 409 kts 316°
2026-04-20 05:15 -24.99753 152.08165 34110 ft 409 kts 316°
2026-04-20 05:16 -24.95115 152.04530 34113 ft 408 kts 316°
2026-04-20 05:16 -24.90509 152.00922 34112 ft 408 kts 316°
2026-04-20 05:17 -24.85875 151.97300 34107 ft 408 kts 316°
2026-04-20 05:17 -24.81235 151.93679 34110 ft 409 kts 316°
2026-04-20 05:18 -24.76597 151.90062 34099 ft 409 kts 316°
2026-04-20 05:18 -24.72738 151.87053 34106 ft 409 kts 316°
2026-04-20 05:19 -24.68087 151.83430 34114 ft 409 kts 316°
2026-04-20 05:19 -24.63432 151.79813 34115 ft 409 kts 316°
2026-04-20 05:20 -24.58785 151.76198 34097 ft 409 kts 316°
2026-04-20 05:20 -24.54142 151.72595 34111 ft 408 kts 316°
2026-04-20 05:21 -24.49532 151.69016 34111 ft 408 kts 316°
2026-04-20 05:21 -24.44897 151.65423 34109 ft 407 kts 316°
2026-04-20 05:22 -24.40267 151.61833 34101 ft 407 kts 316°
2026-04-20 05:22 -24.35631 151.58244 34105 ft 408 kts 316°
2026-04-20 05:23 -24.31021 151.54682 34113 ft 408 kts 316°
2026-04-20 05:23 -24.26376 151.51093 34082 ft 408 kts 316°
2026-04-20 05:24 -24.21732 151.47509 34093 ft 408 kts 316°
2026-04-20 05:24 -24.17094 151.43930 34112 ft 408 kts 316°
2026-04-20 05:25 -24.12478 151.40379 34116 ft 408 kts 316°
2026-04-20 05:25 -24.07834 151.36811 34118 ft 408 kts 316°
2026-04-20 05:26 -24.03190 151.33240 34100 ft 407 kts 316°
2026-04-20 05:26 -23.98551 151.29674 34099 ft 408 kts 316°
2026-04-20 05:27 -23.93908 151.26105 34071 ft 407 kts 316°
2026-04-20 05:27 -23.89270 151.22548 34114 ft 407 kts 316°
2026-04-20 05:28 -23.84580 151.19059 34122 ft 410 kts 319°
2026-04-20 05:28 -23.79690 151.15887 34126 ft 413 kts 321°
2026-04-20 05:29 -23.74687 151.12793 34125 ft 413 kts 321°
2026-04-20 05:29 -23.69718 151.09658 34122 ft 412 kts 320°
2026-04-20 05:30 -23.64773 151.06488 34118 ft 412 kts 320°
2026-04-20 05:30 -23.59833 151.03315 34085 ft 412 kts 320°
2026-04-20 05:31 -23.54891 151.00148 34102 ft 412 kts 320°
2026-04-20 05:31 -23.49945 150.96973 34111 ft 412 kts 320°
2026-04-20 05:32 -23.44995 150.93809 34123 ft 413 kts 320°
2026-04-20 05:32 -23.40038 150.90650 34120 ft 413 kts 320°
2026-04-20 05:33 -23.35080 150.87489 34128 ft 413 kts 320°
2026-04-20 05:33 -23.30123 150.84327 34093 ft 412 kts 320°
2026-04-20 05:34 -23.25209 150.81197 34119 ft 411 kts 320°
2026-04-20 05:34 -23.17819 150.76495 34129 ft 409 kts 320°
2026-04-20 05:35 -23.12903 150.73374 34121 ft 409 kts 320°
2026-04-20 05:35 -23.07991 150.70253 34123 ft 409 kts 320°
2026-04-20 05:36 -23.03109 150.67159 34124 ft 408 kts 320°
2026-04-20 05:36 -22.98195 150.64048 34077 ft 408 kts 320°
2026-04-20 05:37 -22.93305 150.60949 34118 ft 405 kts 320°
2026-04-20 05:37 -22.88449 150.57878 34128 ft 404 kts 320°
2026-04-20 05:38 -22.83629 150.54834 34125 ft 403 kts 320°
2026-04-20 05:38 -22.78804 150.51785 34119 ft 401 kts 320°
2026-04-20 05:39 -22.73984 150.48742 34118 ft 400 kts 320°
2026-04-20 05:39 -22.69172 150.45707 34113 ft 400 kts 320°
2026-04-20 05:40 -22.64388 150.42693 34071 ft 399 kts 320°
2026-04-20 05:40 -22.59587 150.39665 34090 ft 398 kts 320°
2026-04-20 05:41 -22.54800 150.36647 34099 ft 398 kts 320°
2026-04-20 05:41 -22.50010 150.33642 34107 ft 398 kts 320°
2026-04-20 05:42 -22.45220 150.30639 34109 ft 398 kts 320°
2026-04-20 05:42 -22.40436 150.27632 34106 ft 397 kts 320°
2026-04-20 05:43 -22.35658 150.24630 34107 ft 397 kts 320°
2026-04-20 05:43 -22.30875 150.21638 34076 ft 397 kts 320°
2026-04-20 05:44 -22.26212 150.18558 34092 ft 389 kts 313°
2026-04-20 05:44 -22.22125 150.14796 34075 ft 386 kts 311°
2026-04-20 05:45 -22.18056 150.11011 34075 ft 386 kts 311°
2026-04-20 05:45 -22.14004 150.07251 34083 ft 387 kts 311°
2026-04-20 05:46 -22.09918 150.03470 34092 ft 387 kts 311°
2026-04-20 05:46 -22.05835 149.99687 33304 ft 385 kts 311°
2026-04-20 05:47 -22.03811 149.97821 32581 ft 382 kts 311°
2026-04-20 05:47 -22.01787 149.95957 31874 ft 384 kts 311°
2026-04-20 05:47 -21.99746 149.94078 31106 ft 387 kts 312°
2026-04-20 05:47 -21.97686 149.92175 30252 ft 393 kts 312°
2026-04-20 05:48 -21.95630 149.90270 29364 ft 396 kts 313°
2026-04-20 05:48 -21.93531 149.88326 28483 ft 399 kts 313°
2026-04-20 05:48 -21.91412 149.86369 27530 ft 404 kts 313°
2026-04-20 05:48 -21.89267 149.84393 26643 ft 407 kts 313°
2026-04-20 05:49 -21.87101 149.82402 25699 ft 412 kts 313°
2026-04-20 05:49 -21.84912 149.80390 24799 ft 415 kts 314°
2026-04-20 05:49 -21.82708 149.78363 23938 ft 418 kts 314°
2026-04-20 05:49 -21.80490 149.76321 23119 ft 419 kts 314°
2026-04-20 05:50 -21.78288 149.74300 22453 ft 414 kts 314°
2026-04-20 05:50 -21.76102 149.72296 21792 ft 411 kts 314°
2026-04-20 05:50 -21.73961 149.70330 21141 ft 409 kts 314°
2026-04-20 05:50 -21.71802 149.68349 20478 ft 407 kts 315°
2026-04-20 05:51 -21.69648 149.66374 19833 ft 406 kts 315°
2026-04-20 05:51 -21.67501 149.64406 19197 ft 405 kts 315°
2026-04-20 05:51 -21.65358 149.62439 18569 ft 405 kts 315°
2026-04-20 05:51 -21.63198 149.60500 17885 ft 405 kts 319°
2026-04-20 05:52 -21.60872 149.58783 17262 ft 405 kts 322°
2026-04-20 05:52 -21.58519 149.57117 16616 ft 404 kts 323°
2026-04-20 05:52 -21.56173 149.55452 16022 ft 403 kts 323°
2026-04-20 05:52 -21.53835 149.53789 15409 ft 402 kts 323°
2026-04-20 05:53 -21.51507 149.52133 14819 ft 401 kts 323°
2026-04-20 05:53 -21.49183 149.50482 14241 ft 399 kts 324°
2026-04-20 05:53 -21.46901 149.48865 13665 ft 398 kts 324°
2026-04-20 05:53 -21.44599 149.47233 13108 ft 395 kts 324°
2026-04-20 05:54 -21.42309 149.45611 12575 ft 394 kts 324°
2026-04-20 05:54 -21.40024 149.43995 12045 ft 392 kts 324°
2026-04-20 05:54 -21.37756 149.42390 11523 ft 390 kts 324°
2026-04-20 05:54 -21.35525 149.40809 11309 ft 376 kts 324°
2026-04-20 05:55 -21.33387 149.39296 11180 ft 361 kts 324°
2026-04-20 05:55 -21.31319 149.37859 11058 ft 347 kts 328°
2026-04-20 05:55 -21.29177 149.36758 10937 ft 336 kts 338°
2026-04-20 05:55 -21.27011 149.35933 10813 ft 324 kts 339°
2026-04-20 05:56 -21.24922 149.35135 10649 ft 315 kts 339°
2026-04-20 05:56 -21.22878 149.34350 10477 ft 307 kts 339°
2026-04-20 05:56 -21.20862 149.33571 10326 ft 308 kts 339°
2026-04-20 05:56 -21.18846 149.32790 10211 ft 308 kts 339°
2026-04-20 05:57 -21.16829 149.32012 10076 ft 308 kts 339°
2026-04-20 05:57 -21.14835 149.31245 9818 ft 310 kts 339°
2026-04-20 05:57 -21.12797 149.30462 9387 ft 308 kts 338°
2026-04-20 05:57 -21.10903 149.29428 8625 ft 304 kts 323°
2026-04-20 05:58 -21.09335 149.27935 7906 ft 299 kts 310°
2026-04-20 05:58 -21.07938 149.26313 7470 ft 297 kts 311°
2026-04-20 05:58 -21.06527 149.24699 7065 ft 296 kts 312°
2026-04-20 05:58 -21.05103 149.23082 6660 ft 300 kts 312°
2026-04-20 05:59 -21.03669 149.21451 6273 ft 300 kts 312°
2026-04-20 05:59 -21.02238 149.19823 5835 ft 298 kts 313°
2026-04-20 05:59 -21.00871 149.18195 5407 ft 293 kts 304°
2026-04-20 05:59 -21.00067 149.16205 4990 ft 293 kts 277°
2026-04-20 06:00 -21.00153 149.14090 4551 ft 288 kts 252°
2026-04-20 06:00 -21.00933 149.12158 4234 ft 278 kts 230°
2026-04-20 06:00 -21.02299 149.10779 3699 ft 266 kts 204°
2026-04-20 06:00 -21.04024 149.10274 3133 ft 251 kts 176°
2026-04-20 06:01 -21.05664 149.10626 2676 ft 235 kts 152°
2026-04-20 06:01 -21.07031 149.11509 2261 ft 223 kts 143°
2026-04-20 06:01 -21.08297 149.12404 1851 ft 215 kts 146°
2026-04-20 06:01 -21.09527 149.13260 1671 ft 208 kts 144°
2026-04-20 06:02 -21.10675 149.14073 1474 ft 188 kts 144°
2026-04-20 06:02 -21.11760 149.14761 1176 ft 175 kts 146°
2026-04-20 06:02 -21.12790 149.15410 835 ft 168 kts 146°
2026-04-20 06:02 -21.13726 149.16000 658 ft 152 kts 145°
2026-04-20 06:03 -21.14597 149.16589 443 ft 145 kts 143°
2026-04-20 06:03 -21.15440 149.17170 234 ft 143 kts 146°
2026-04-20 06:03 -21.16290 149.17729 73 ft 143 kts 146°
2026-04-20 06:03 -21.17063 149.18256 28 ft 100 kts 148°
2026-04-20 06:04 -21.17401 149.18473 26 ft 14 kts 147°
2026-04-20 06:04 -21.17501 149.18493 23 ft 15 kts 217°
2026-04-20 06:04 -21.17556 149.18404 23 ft 15 kts 235°
2026-04-20 06:04 -21.17591 149.18351 25 ft 2 kts 240°
2026-04-20 06:05 -21.17587 149.18319 26 ft 7 kts 301°
2026-04-20 06:05 -21.17577 149.18273 27 ft 6 kts 284°
2026-04-20 06:05 -21.17571 149.18249 27 ft 0 kts 287°